| time (UTC) | temp C | wind direction | speed KPH | gust KPH | rain 1hr cm | rain 24hr cm | rain mn cm | humidity % | barometer mb |
| 20260507020050 | 13 | 258 | 3.2 | 12.9 | 0.36 | 0.71 | 0.71 | 94 | 1005.4 |
| 20260507014541 | 13 | 314 | 1.6 | 6.4 | 0.33 | 0.71 | 0.69 | 93 | 1004.9 |
| 20260507013040 | 13 | 0 | 0.0 | 16.1 | 0.23 | 0.61 | 0.58 | 93 | 1004.9 |
| 20260507011546 | 15 | 201 | 3.2 | 17.7 | 0.15 | 0.53 | 0.51 | 93 | 1004.8 |
| 20260507010046 | 15 | 0 | 0.0 | 3.2 | 0.00 | 0.38 | 0.36 | 94 | 1004.4 |
| 20260507004544 | 15 | 0 | 0.0 | 1.6 | 0.00 | 0.38 | 0.36 | 94 | 1004.3 |
| 20260507003040 | 15 | 0 | 0.0 | 0.0 | 0.00 | 0.38 | 0.36 | 94 | 1004.1 |
| 20260507001606 | 15 | 0 | 0.0 | 6.4 | 0.00 | 0.38 | 0.36 | 94 | 1004.2 |
| 20260507000043 | 15 | 0 | 0.0 | 0.0 | 0.00 | 0.38 | 0.36 | 94 | 1004.0 |
| 20260506234551 | 16 | 0 | 0.0 | 1.6 | 0.00 | 0.43 | 0.36 | 94 | 1003.8 |
| 20260506233043 | 16 | 0 | 0.0 | 8.0 | 0.00 | 0.43 | 0.36 | 94 | 1003.6 |
| 20260506231543 | 16 | 0 | 0.0 | 6.4 | 0.00 | 0.43 | 0.36 | 94 | 1003.8 |
| 20260506230053 | 16 | 0 | 0.0 | 8.0 | 0.00 | 0.43 | 0.36 | 94 | 1003.9 |
| 20260506224540 | 16 | 0 | 0.0 | 8.0 | 0.00 | 0.43 | 0.36 | 94 | 1003.8 |
| 20260506223041 | 16 | 0 | 0.0 | 6.4 | 0.00 | 0.43 | 0.36 | 94 | 1003.9 |
| 20260506221602 | 16 | 0 | 0.0 | 0.0 | 0.00 | 0.43 | 0.36 | 94 | 1004.0 |
| 20260506220043 | 16 | 0 | 0.0 | 8.0 | 0.00 | 0.43 | 0.36 | 94 | 1004.0 |
| 20260506214541 | 16 | 0 | 0.0 | 6.4 | 0.00 | 0.43 | 0.36 | 94 | 1004.0 |
| 20260506213040 | 16 | 0 | 1.6 | 8.0 | 0.00 | 0.43 | 0.36 | 94 | 1004.2 |
| 20260506211540 | 17 | 231 | 0.0 | 4.8 | 0.03 | 0.43 | 0.36 | 95 | 1004.3 |
| 20260506210051 | 17 | 175 | 0.0 | 4.8 | 0.08 | 0.43 | 0.36 | 94 | 1004.3 |
| 20260506204547 | 17 | 0 | 0.0 | 3.2 | 0.13 | 0.43 | 0.36 | 95 | 1004.5 |
| 20260506203043 | 17 | 0 | 1.6 | 8.0 | 0.15 | 0.43 | 0.36 | 94 | 1004.5 |
| 20260506201541 | 17 | 0 | 0.0 | 0.0 | 0.13 | 0.41 | 0.33 | 94 | 1004.5 |
| 20260506200040 | 17 | 0 | 0.0 | 3.2 | 0.10 | 0.36 | 0.28 | 94 | 1004.8 |
| 20260506194536 | 17 | 0 | 0.0 | 0.0 | 0.05 | 0.30 | 0.23 | 94 | 1004.9 |
| 20260506193048 | 17 | 0 | 0.0 | 0.0 | 0.05 | 0.28 | 0.20 | 94 | 1005.1 |
| 20260506191542 | 17 | 0 | 0.0 | 0.0 | 0.08 | 0.28 | 0.20 | 94 | 1005.0 |
| 20260506190040 | 17 | 0 | 0.0 | 0.0 | 0.08 | 0.25 | 0.18 | 93 | 1005.0 |
| 20260506184543 | 17 | 0 | 0.0 | 0.0 | 0.10 | 0.25 | 0.18 | 93 | 1005.5 |
| 20260506183045 | 17 | 0 | 0.0 | 0.0 | 0.13 | 0.23 | 0.15 | 92 | 1005.8 |
| 20260506181549 | 17 | 0 | 0.0 | 0.0 | 0.13 | 0.20 | 0.13 | 91 | 1005.9 |
| 20260506180040 | 17 | 0 | 0.0 | 0.0 | 0.10 | 0.18 | 0.10 | 90 | 1006.3 |
| 20260506174541 | 17 | 0 | 0.0 | 3.2 | 0.08 | 0.15 | 0.08 | 87 | 1006.4 |
| 20260506173041 | 18 | 0 | 0.0 | 9.7 | 0.03 | 0.10 | 0.03 | 83 | 1006.4 |
| 20260506171545 | 19 | 0 | 1.6 | 4.8 | 0.00 | 0.08 | 0.00 | 78 | 1006.2 |
| 20260506170052 | 20 | 225 | 3.2 | 12.9 | 0.00 | 0.08 | 0.00 | 70 | 1005.9 |
| 20260506164554 | 21 | 256 | 4.8 | 25.7 | 0.00 | 0.08 | 0.00 | 67 | 1005.9 |
| 20260506163045 | 21 | 227 | 3.2 | 11.3 | 0.00 | 0.08 | 0.00 | 67 | 1006.1 |
| 20260506161546 | 21 | 198 | 3.2 | 11.3 | 0.00 | 0.08 | 0.00 | 68 | 1006.4 |
| 20260506160055 | 20 | 0 | 0.0 | 6.4 | 0.00 | 0.08 | 0.00 | 70 | 1006.6 |
| 20260506154544 | 20 | 252 | 4.8 | 16.1 | 0.00 | 0.08 | 0.00 | 70 | 1006.9 |
| 20260506153040 | 20 | 225 | 4.8 | 16.1 | 0.00 | 0.08 | 0.00 | 69 | 1007.2 |
| 20260506151540 | 20 | 234 | 9.7 | 20.9 | 0.00 | 0.08 | 0.00 | 69 | 1007.5 |
| 20260506150056 | 20 | 0 | 0.0 | 0.0 | 0.00 | 0.08 | 0.00 | 72 | 1007.4 |
| 20260506144542 | 21 | 0 | 0.0 | 4.8 | 0.00 | 0.08 | 0.00 | 71 | 1007.2 |
| 20260506143042 | 21 | 0 | 0.0 | 6.4 | 0.00 | 0.08 | 0.00 | 74 | 1007.3 |
| 20260506141544 | 20 | 0 | 1.6 | 8.0 | 0.00 | 0.08 | 0.00 | 75 | 1007.2 |
| 20260506140041 | 19 | 0 | 0.0 | 0.0 | 0.00 | 0.08 | 0.00 | 81 | 1007.2 |
| 20260506134536 | 18 | 0 | 0.0 | 0.0 | 0.00 | 0.08 | 0.00 | 84 | 1007.3 |
| 20260506133056 | 17 | 0 | 0.0 | 0.0 | 0.00 | 0.08 | 0.00 | 85 | 1007.5 |
| 20260506131542 | 16 | 0 | 0.0 | 0.0 | 0.00 | 0.08 | 0.00 | 89 | 1007.6 |
| 20260506130041 | 16 | 0 | 0.0 | 1.6 | 0.00 | 0.08 | 0.00 | 91 | 1007.7 |
| 20260506124541 | 15 | 0 | 0.0 | 0.0 | 0.00 | 0.08 | 0.00 | 94 | 1007.7 |
| 20260506123041 | 15 | 0 | 0.0 | 0.0 | 0.00 | 0.08 | 0.00 | 95 | 1007.6 |
| 20260506121553 | 14 | 0 | 0.0 | 0.0 | 0.00 | 0.08 | 0.00 | 95 | 1007.6 |
| 20260506120056 | 13 | 0 | 0.0 | 0.0 | 0.00 | 0.08 | 0.00 | 95 | 1007.7 |
| 20260506114541 | 13 | 0 | 0.0 | 0.0 | 0.00 | 0.08 | 0.00 | 95 | 1007.9 |
| 20260506113041 | 12 | 0 | 0.0 | 0.0 | 0.00 | 0.08 | 0.00 | 95 | 1007.9 |
| 20260506111545 | 12 | 0 | 0.0 | 3.2 | 0.00 | 0.08 | 0.00 | 95 | 1008.2 |
| 20260506110057 | 11 | 0 | 0.0 | 0.0 | 0.00 | 0.08 | 0.00 | 95 | 1008.0 |
| 20260506104557 | 11 | 0 | 0.0 | 0.0 | 0.00 | 0.08 | 0.00 | 95 | 1008.0 |
| 20260506103046 | 11 | 0 | 0.0 | 0.0 | 0.00 | 0.08 | 0.00 | 94 | 1008.1 |
| 20260506101541 | 11 | 0 | 0.0 | 0.0 | 0.00 | 0.08 | 0.00 | 94 | 1008.0 |
| 20260506100048 | 11 | 0 | 0.0 | 0.0 | 0.00 | 0.08 | 0.00 | 94 | 1008.1 |
| 20260506094536 | 11 | 0 | 0.0 | 0.0 | 0.00 | 0.08 | 0.00 | 94 | 1008.0 |
| 20260506093044 | 11 | 0 | 0.0 | 0.0 | 0.00 | 0.08 | 0.00 | 94 | 1007.9 |
| 20260506091541 | 11 | 0 | 0.0 | 0.0 | 0.00 | 0.08 | 0.00 | 93 | 1007.9 |
| 20260506090042 | 11 | 0 | 0.0 | 4.8 | 0.00 | 0.08 | 0.00 | 93 | 1008.1 |
| 20260506084612 | 12 | 0 | 0.0 | 0.0 | 0.00 | 0.08 | 0.00 | 93 | 1008.0 |
| 20260506083040 | 12 | 0 | 0.0 | 0.0 | 0.00 | 0.08 | 0.00 | 93 | 1008.0 |
| 20260506081554 | 12 | 0 | 0.0 | 0.0 | 0.00 | 0.08 | 0.00 | 92 | 1008.2 |
| 20260506073044 | 13 | 0 | 0.0 | 0.0 | 0.00 | 0.08 | 0.00 | 92 | 1008.1 |
| 20260506071541 | 13 | 0 | 0.0 | 0.0 | 0.00 | 0.08 | 0.00 | 92 | 1008.1 |
| 20260506061541 | 13 | 0 | 0.0 | 0.0 | 0.00 | 0.08 | 0.00 | 90 | 1007.7 |
| 20260506044540 | 16 | 0 | 0.0 | 0.0 | 0.00 | 0.08 | 0.00 | 81 | 1007.9 |
| 20260506043048 | 16 | 0 | 0.0 | 1.6 | 0.00 | 0.08 | 0.00 | 81 | 1007.9 |
| 20260506041546 | 16 | 0 | 0.0 | 4.8 | 0.00 | 0.08 | 0.00 | 82 | 1008.0 |
| 20260506040042 | 15 | 0 | 0.0 | 6.4 | 0.00 | 0.08 | 0.00 | 87 | 1007.8 |
| 20260506034541 | 15 | 0 | 0.0 | 4.8 | 0.00 | 0.08 | 0.08 | 93 | 1007.7 |
| 20260506033040 | 15 | 286 | 0.0 | 6.4 | 0.00 | 0.08 | 0.08 | 94 | 1007.5 |
| 20260506031543 | 15 | 0 | 0.0 | 4.8 | 0.00 | 0.08 | 0.08 | 93 | 1007.7 |
| 20260506030043 | 15 | 0 | 0.0 | 0.0 | 0.00 | 0.08 | 0.08 | 93 | 1007.7 |
| 20260506024541 | 15 | 0 | 0.0 | 0.0 | 0.03 | 0.08 | 0.08 | 93 | 1007.8 |
| 20260506023059 | 15 | 0 | 0.0 | 0.0 | 0.03 | 0.08 | 0.08 | 92 | 1007.6 |
| 20260506021606 | 16 | 0 | 0.0 | 0.0 | 0.03 | 0.08 | 0.08 | 92 | 1007.6 |